Jamestown, NY

12:28 PM EST on December 14, 2017 (GMT -0500)
Chautauqua County-Jamestown

Weather History for KJHW - March, 2014

Change the Weather History Date:

Saturday, March 1, 2014

  Actual Average Record
Temperature  
Mean Temperature 24 °F -  
Max Temperature 35 °F 37 °F 63 °F (1976)
Min Temperature 12 °F 13 °F -14 °F (1980)
Degree Days  
Heating Degree Days 42    
Moisture  
Dew Point 8 °F    
Average Humidity 52    
Maximum Humidity 93    
Minimum Humidity 38    
Precipitation  
Precipitation 0.00 in - - ()
Sea Level Pressure  
Sea Level Pressure 30.05 in    
Wind  
Wind Speed 9 mph (SW)    
Max Wind Speed 15 mph    
Max Gust Speed 21 mph    
Visibility 10 miles    
Events      
Averages and records for this station are not official NWS values.
T = Trace of Precipitation, MM = Missing Value Source: NWS Daily Summary

Daily Weather History Graph

Daily Weather History Graph

Search for Another Location

Airport or City:

Trip Planner

Search our weather history database for the weather conditions in past years. The results will help you decide how hot, cold, wet, or windy it might be!

Date:

Astronomy

Mar. 01, 2014 Rise Set
Actual Time 6:52 AM EST 6:07 PM EST
Civil Twilight 6:24 AM EST 6:35 PM EST
Nautical Twilight 5:51 AM EST 7:07 PM EST
Astronomical Twilight 5:19 AM EST 7:40 PM EST
Moon 6:44 AM EST (3/1) 6:54 PM EST (3/1)
Length of Visible Light 12h 11m
Length of Day
11h 14m
New Moon, 0% of the Moon is Illuminated
Mar 1
New Moon
Mar 8
First Quarter
Mar 16
Full
Mar 23
Last Quarter
Mar 30
New

Hourly Weather History & Observations

Time (EST) Temp. Windchill Dew Point Humidity Pressure Visibility Wind Dir Wind Speed Gust Speed Precip Events Conditions
12:15 AM 12.2 °F -1.0 °F -7.6 °F 41% 30.09 in 10.0 mi South 10.4 mph - N/A   Clear
12:35 AM 12.2 °F -1.8 °F -5.8 °F 45% 30.08 in 10.0 mi South 11.5 mph - N/A   Clear
12:55 AM 14.0 °F 1.2 °F -5.8 °F 41% 30.08 in 10.0 mi South 10.4 mph - N/A   Clear
1:15 AM 14.0 °F 1.2 °F -5.8 °F 41% 30.08 in 10.0 mi South 10.4 mph 16.1 mph N/A   Clear
1:35 AM 14.0 °F 1.2 °F -5.8 °F 41% 30.08 in 10.0 mi South 10.4 mph - N/A   Clear
1:55 AM 12.2 °F -1.0 °F -5.8 °F 45% 30.08 in 10.0 mi South 10.4 mph - N/A   Clear
2:15 AM 12.2 °F -1.0 °F -4.0 °F 48% 30.07 in 10.0 mi South 10.4 mph - N/A   Clear
2:35 AM 14.0 °F 2.0 °F -4.0 °F 45% 30.07 in 10.0 mi South 9.2 mph - N/A   Scattered Clouds
2:55 AM 14.0 °F 1.2 °F -4.0 °F 45% 30.06 in 10.0 mi South 10.4 mph - N/A   Partly Cloudy
3:15 AM 14.0 °F 1.2 °F -4.0 °F 45% 30.05 in 10.0 mi South 10.4 mph - N/A   Clear
3:35 AM 14.0 °F 2.0 °F -2.2 °F 49% 30.05 in 10.0 mi South 9.2 mph - N/A   Clear
3:55 AM 14.0 °F 2.0 °F -2.2 °F 49% 30.04 in 10.0 mi South 9.2 mph - N/A   Clear
4:15 AM 14.0 °F 1.2 °F -2.2 °F 49% 30.04 in 10.0 mi South 10.4 mph - N/A   Clear
4:55 AM 14.0 °F 2.9 °F -2.2 °F 49% 30.05 in 10.0 mi South 8.1 mph - N/A   Clear
5:15 AM 15.8 °F 3.4 °F -2.2 °F 45% 30.05 in 10.0 mi South 10.4 mph - N/A   Clear
5:35 AM 15.8 °F 4.2 °F -0.4 °F 49% 30.05 in 10.0 mi South 9.2 mph - N/A   Clear
5:55 AM 15.8 °F 4.2 °F -0.4 °F 49% 30.06 in 10.0 mi South 9.2 mph - N/A   Partly Cloudy
6:15 AM 15.8 °F 6.1 °F -0.4 °F 49% 30.06 in 10.0 mi South 6.9 mph - N/A   Mostly Cloudy
6:35 AM 15.8 °F 6.1 °F -0.4 °F 49% 30.06 in 10.0 mi South 6.9 mph - N/A   Overcast
6:55 AM 15.8 °F 6.1 °F 1.4 °F 53% 30.06 in 10.0 mi South 6.9 mph - N/A   Overcast
7:15 AM 15.8 °F 6.1 °F 1.4 °F 53% 30.06 in 10.0 mi South 6.9 mph - N/A   Overcast
7:35 AM 17.6 °F 9.3 °F 1.4 °F 49% 30.06 in 10.0 mi South 5.8 mph - N/A   Mostly Cloudy
7:55 AM 17.6 °F 9.3 °F 1.4 °F 49% 30.07 in 10.0 mi South 5.8 mph - N/A   Overcast
8:15 AM 17.6 °F 9.3 °F 1.4 °F 49% 30.07 in 10.0 mi South 5.8 mph - N/A   Overcast
8:35 AM 19.4 °F 10.4 °F 3.2 °F 49% 30.07 in 10.0 mi SSW 6.9 mph - N/A   Overcast
8:55 AM 19.4 °F 9.5 °F 5.0 °F 54% 30.07 in 10.0 mi South 8.1 mph - N/A   Overcast
9:15 AM 21.2 °F 10.9 °F 3.2 °F 46% 30.07 in 10.0 mi South 9.2 mph - N/A   Mostly Cloudy
9:35 AM 21.2 °F 10.9 °F 6.8 °F 54% 30.07 in 10.0 mi South 9.2 mph - N/A   Mostly Cloudy
9:55 AM 24.8 °F 16.9 °F 6.8 °F 46% 30.07 in 10.0 mi South 6.9 mph - N/A   Mostly Cloudy
10:15 AM 26.6 °F 19.1 °F 8.6 °F 47% 30.06 in 10.0 mi South 6.9 mph - N/A   Scattered Clouds
10:35 AM 28.4 °F 20.4 °F 8.6 °F 43% 30.07 in 10.0 mi SSW 8.1 mph - N/A   Mostly Cloudy
10:55 AM 28.4 °F 19.7 °F 10.4 °F 47% 30.07 in 10.0 mi SSW 9.2 mph - N/A   Overcast
11:15 AM 30.2 °F 21.9 °F 10.4 °F 44% 30.06 in 10.0 mi South 9.2 mph - N/A   Overcast
11:35 AM 30.2 °F 23.4 °F 10.4 °F 44% 30.05 in 10.0 mi SSW 6.9 mph - N/A   Overcast
11:55 AM 33.8 °F 27.0 °F 12.2 °F 41% 30.06 in 10.0 mi SSW 8.1 mph - N/A   Mostly Cloudy
12:15 PM 32.0 °F 23.6 °F 10.4 °F 41% 30.06 in 10.0 mi SW 10.4 mph 16.1 mph N/A   Mostly Cloudy
12:35 PM 33.8 °F 28.6 °F 12.2 °F 41% 30.06 in 10.0 mi SSW 5.8 mph - N/A   Overcast
12:55 PM 33.8 °F 27.0 °F 10.4 °F 38% 30.05 in 10.0 mi SW 8.1 mph - N/A   Overcast
1:15 PM 33.8 °F 27.0 °F 12.2 °F 41% 30.04 in 10.0 mi SSW 8.1 mph - N/A   Overcast
1:35 PM 33.8 °F 26.4 °F 12.2 °F 41% 30.03 in 10.0 mi SSW 9.2 mph - N/A   Overcast
1:55 PM 33.8 °F 25.3 °F 10.4 °F 38% 30.02 in 10.0 mi SW 11.5 mph 17.3 mph N/A   Mostly Cloudy
2:15 PM 35.6 °F 28.0 °F 12.2 °F 38% 30.01 in 10.0 mi SW 10.4 mph - N/A   Mostly Cloudy
2:35 PM 35.6 °F 27.1 °F 12.2 °F 38% 30.01 in 10.0 mi SW 12.7 mph 18.4 mph N/A   Overcast
2:55 PM 35.6 °F 29.2 °F 12.2 °F 38% 30.00 in 10.0 mi SW 8.1 mph 17.3 mph N/A   Overcast
3:15 PM 35.6 °F 26.6 °F 12.2 °F 38% 30.01 in 10.0 mi SW 13.8 mph 20.7 mph N/A   Overcast
3:35 PM 35.6 °F 28.0 °F 14.0 °F 41% 30.01 in 10.0 mi SW 10.4 mph - N/A   Overcast
3:55 PM 35.6 °F 29.2 °F 14.0 °F 41% 30.01 in 10.0 mi SW 8.1 mph - N/A   Overcast
4:15 PM 35.6 °F 27.5 °F 14.0 °F 41% 30.01 in 10.0 mi SW 11.5 mph 16.1 mph N/A   Overcast
4:35 PM 35.6 °F 29.2 °F 15.8 °F 44% 30.01 in 10.0 mi SW 8.1 mph - N/A   Overcast
4:55 PM 35.6 °F 28.6 °F 15.8 °F 44% 30.02 in 10.0 mi SW 9.2 mph - N/A   Overcast
5:15 PM 35.6 °F 28.6 °F 14.0 °F 41% 30.02 in 10.0 mi SW 9.2 mph - N/A   Overcast
5:35 PM 35.6 °F 29.9 °F 15.8 °F 44% 30.02 in 10.0 mi SW 6.9 mph - N/A   Overcast
5:55 PM 35.6 °F 30.7 °F 15.8 °F 44% 30.02 in 10.0 mi SSW 5.8 mph - N/A   Overcast
6:15 PM 35.6 °F 30.7 °F 15.8 °F 44% 30.03 in 10.0 mi SSW 5.8 mph - N/A   Overcast
6:35 PM 35.6 °F 30.7 °F 15.8 °F 44% 30.02 in 10.0 mi WSW 5.8 mph - N/A   Overcast
6:55 PM 30.2 °F 21.3 °F 17.6 °F 60% 30.03 in 10.0 mi North 10.4 mph - N/A   Overcast
7:15 PM 28.4 °F 18.0 °F 19.4 °F 69% 30.04 in 10.0 mi NNW 12.7 mph - N/A   Overcast
7:35 PM 28.4 °F 18.0 °F 17.6 °F 64% 30.05 in 10.0 mi NW 12.7 mph - N/A   Overcast
7:55 PM 28.4 °F 19.7 °F 15.8 °F 59% 30.05 in 10.0 mi NW 9.2 mph - N/A   Overcast
8:15 PM 28.4 °F 22.2 °F 15.8 °F 59% 30.05 in 10.0 mi NW 5.8 mph - N/A   Overcast
8:35 PM 28.4 °F 20.4 °F 15.8 °F 59% 30.05 in 10.0 mi NW 8.1 mph - N/A   Overcast
8:55 PM 26.6 °F 19.1 °F 19.4 °F 74% 30.05 in 10.0 mi NW 6.9 mph - N/A   Mostly Cloudy
9:15 PM 26.6 °F 18.2 °F 19.4 °F 74% 30.07 in 10.0 mi NNW 8.1 mph - N/A   Mostly Cloudy
9:35 PM 26.6 °F 22.6 °F 19.4 °F 74% 30.07 in 10.0 mi NW 3.5 mph - N/A   Overcast
9:55 PM 24.8 °F 16.1 °F 19.4 °F 80% 30.07 in 10.0 mi NW 8.1 mph - N/A   Overcast
10:15 PM 24.8 °F 16.1 °F 19.4 °F 80% 30.06 in 10.0 mi WNW 8.1 mph - N/A   Overcast
10:35 PM 24.8 °F 14.0 °F 21.2 °F 86% 30.07 in 4.0 mi North 11.5 mph - N/A   Overcast
10:55 PM 21.2 °F 9.5 °F 19.4 °F 93% 30.08 in 3.0 mi North 11.5 mph - N/A   Overcast
11:15 PM 19.4 °F 6.0 °F 17.6 °F 93% 30.08 in 0.8 mi NNW 13.8 mph 18.4 mph N/A   Overcast
11:35 PM 19.4 °F 5.5 °F 15.8 °F 86% 30.08 in 1.2 mi NNW 15.0 mph 19.6 mph N/A   Overcast
11:55 PM 17.6 °F 4.3 °F 15.8 °F 93% 30.10 in 2.5 mi NNW 12.7 mph - N/A   Overcast